User: anonymous   Login
Location: Unspecified
(0.0000°N, 0.0000°E)
Time: 19:57:19
(UTC+00:00)
Language:

Kosmos-1333 - Orbit

View from above orbital plane
View from above orbital plane
View from above satellite
View from above satellite

Ground track
Ground track

The orbit data is extracted from the following two-line orbital elements,

1 13033U 82003A   17144.93511976 +.00000035 +00000-0 +20799-4 0  9990
2 13033 082.9424 090.5267 0033278 038.8427 023.0848 13.73194501771841
Epoch (UTC): 24 May 2017 22:26:34
Eccentricity: 0.0033278
inclination: 82.9424°
perigee height: 963 km
apogee height: 1012 km
right ascension of ascending node: 90.5267°
argument of perigee: 38.8427°
revolutions per day: 13.73194501
mean anomaly at epoch: 23.0848°
orbit number at epoch: 77184

The dashed part of the orbit path shows where the satellite is in the earth's shadow,  

DLR